Regional Weather Roundup
Issued by NWS

Home | Current Version | Previous Version | Text Only | Print | Product List | Glossary On
Versions: 1 2 3 4 5 6 7 8 9 10 11 12 13 14 15 16 17 18 19 20 21 22 23 24 25 26 27 28 29 30 31 32 33 34 35 36 37 38 39 40 41 42 43 44 45 46 47 48 49 50
000
ASUS46 KLOX 301113
RWRCA

SOUTHERN CALIFORNIA WEATHER ROUNDUP
NATIONAL WEATHER SERVICE OXNARD CALIFORNIA
400 AM PDT TUE JUN 30 2015

NOTE: "FAIR" INDICATES FEW OR NO CLOUDS BELOW 12,000 FEET WITH NO
SIGNIFICANT WEATHER AND/OR OBSTRUCTIONS TO VISIBILITY.

  -  STATIONS PRECEEDED BY AN ASTERISK (*) ARE NOT NWS OR FAA
     STATIONS AND ARE NOT SUBJECT TO NWS AND FAA QUALITY CONTROL.

CAZ041-042-087-301200-
LA AND ORANGE COUNTY COASTAL AREAS


CITY           SKY/WX    TMP DP  RH WIND       PRES   REMARKS
L.A. DOWNTOWN  PTCLDY    68  59  73 CALM      29.87F
L.A. AIRPORT   PTCLDY    66  62  87 W3        29.88S
LONG BEACH     CLEAR     69  63  81 CALM      29.87S

CITY           SKY/WX    TMP DP  RH WIND       PRES   REMARKS
AVALON           N/A    N/A N/A N/A MISG        N/A
FULLERTON      PTCLDY    69  62  78 S3        29.86F
*GETTY CENTER    N/A     68  57  68 SW1         N/A
HAWTHORNE      CLEAR     68  60  75 CALM      29.88S
*LOS ALAMITOS  FAIR      65  63  96 SE2       29.87S
*REDONDO BEACH   N/A     64  60  87 CALM      29.87F
SANTA ANA      PTCLDY    67  64  90 W3        29.87S
STA MONICA APT CLEAR     67  61  81 CALM      29.88S
*UCLA            N/A     66  57  72 CALM      29.85S

$$

CAZ547-548-048-301200-
LA COUNTY VALLEYS AND INLAND EMPIRE


CITY           SKY/WX    TMP DP  RH WIND       PRES   REMARKS
BURBANK        CLEAR     72  57  59 CALM      29.88S
VAN NUYS       CLEAR     73  57  57 E3        29.88S

CITY           SKY/WX    TMP DP  RH WIND       PRES   REMARKS
CORONA AIRPORT PTSUNNY   68  61  77 CALM      29.88F
*CHATSWORTH      N/A     72  57  60 CALM      29.85R
CHINO          MOCLDY    69  60  73 S3        29.89S
MARCH AFB      MOCLDY    71  56  59 CALM      29.90F
*NORTHRIDGE      N/A     72  55  56 CALM        N/A
ONTARIO        MOCLDY    73  59  61 CALM      29.88S
*PASADENA        N/A     72  61  68 CALM        N/A
RIVERSIDE      MOCLDY    72  59  63 CALM      29.88F
SAN BERNARDINO NOT AVBL
*SAN GABRIEL     N/A     70  58  66 SW2       29.93S
*WHITEMAN AP   NOT AVBL
*WOODLAND HILL   N/A     70  55  60 SW1         N/A

$$

CAZ054-055-301200-
LA AND SAN BERNARDINO COUNTY MOUNTAINS


CITY           SKY/WX    TMP DP  RH WIND       PRES   REMARKS
*BIG BEAR AIRP PTSUNNY   52  43  71 CALM      30.29S
SANDBERG       PTCLDY    77  48  35 NW9       30.11F

$$

CAZ028-029-059-060-099-301200-
ANTELOPE VALLEY AND SURROUNDING AREAS


CITY           SKY/WX    TMP DP  RH WIND       PRES   REMARKS
LANCASTER      MOCLDY    75  42  30 CALM      29.95F
PALMDALE       MOCLDY    78  42  27 S8        29.96F

CITY           SKY/WX    TMP DP  RH WIND       PRES   REMARKS
29 PALMS       PTCLDY    86  51  29 W10       29.97S
BARSTOW/DAGGET MOCLDY    85  45  24 W9        29.90F
BISHOP         PTCLDY    67  48  50 CALM      30.10S
CHINA LAKE     PTCLDY    83  47  28 S6        29.91S
EDWARDS AFB    CLOUDY    79  42  26 S10       29.92F
MOJAVE         FAIR      81  50  34 W3        29.97F
NEEDLES        CLOUDY    99  53  21 W9        29.77F HX  96
VICTORVILLE    CLOUDY    75  45  33 CALM      29.99S

$$

CAZ039-040-301200-
VENTURA AND SANTA BARBARA COUNTY COAST


CITY           SKY/WX    TMP DP  RH WIND       PRES   REMARKS
CAMARILLO      CLEAR     62  56  80 CALM      29.87S
NWS OXNARD       N/A     62  57  85 CALM      29.87R
OXNARD AIRPORT CLEAR     63  58  83 W3        29.87S
*POINT MUGU    CLEAR     62  57  83 CALM      29.88S
SBA APT/GOLETA CLEAR     62  58  86 CALM      29.86F
*SANTA BARBARA   N/A     63  57  81 CALM      29.94S
*VENTURA         N/A     63  56  79 CALM      29.47S

$$

CAZ044-045-301200-
VENTURA COUNTY VALLEYS


CITY           SKY/WX    TMP DP  RH WIND       PRES   REMARKS
*SIMI VALLEY     N/A     66  52  61 CALM      29.81R
*OJAI            N/A     62  54  74 CALM      29.80R
*FILLMORE        N/A     62  56  79 CALM      29.77S

$$

CAZ053-301200-
VENTURA COUNTY MOUNTAINS


CITY           SKY/WX    TMP DP  RH WIND       PRES   REMARKS

$$

CAZ034-035-036-301200-
CENTRAL COAST AND SANTA YNEZ VALLEY


CITY           SKY/WX    TMP DP  RH WIND       PRES   REMARKS
SAN LUIS OBISP CLEAR     59  53  80 CALM      29.88F
SANTA MARIA    CLEAR     59  55  87 CALM      29.89F

CITY           SKY/WX    TMP DP  RH WIND       PRES   REMARKS
*CAL POLY SLO    N/A     59  55  88 CALM        N/A
*LOMPOC        CLOUDY    59  52  77 NW3       29.90F
*PISMO BEACH     N/A     58  55  92 CALM      29.89S
*SANTA YNEZ    FAIR      55  52  88 SW3       29.89F

$$

CAZ037-038-051-301200-
SAN LUIS OBISPO COUNTY INTERIOR AND CUYAMA VALLEY


CITY           SKY/WX    TMP DP  RH WIND       PRES   REMARKS
*CUYAMA          N/A     69  53  55 E1        29.81F
PASO ROBLES    CLEAR     66  52  60 CALM      29.91R

$$

CAZ032-033-061-301200-
SOUTHERN DESERTS


CITY           SKY/WX    TMP DP  RH WIND       PRES   REMARKS
BLYTHE         CLOUDY    90  63  40 S10       29.77S HX  91
IMPERIAL       CLEAR     84  70  62 E8        29.74R
PALM SPRINGS   PTCLDY    88  52  29 SE6       29.81R
THERMAL        PTCLDY    82  68  62 CALM      29.74F

$$

ELSEWHERE ACROSS THE WESTERN UNITED STATES AND MEXICO


CITY           SKY/WX    TMP DP  RH WIND       PRES   REMARKS
DENVER, CO     PTCLDY    65  50  58 SW9       30.17F
GRAND CANYON,  PTCLDY    52  49  89 CALM      30.29F
HONOLULU, HI   PTCLDY    77  70  78 N5        29.99F
KAHULUI, MAUI  CLEAR     73  70  88 SE3       29.99F
LAKE TAHOE, CA PTCLDY    58  54  86 S3        30.29S
LAS VEGAS, NV  CLOUDY    95  54  25 S16G24    29.86S HX  93
MAMMOTH LAKES, FAIR      57  45  62 CALM      30.36S
MEXICO CITY, M MOCLDY    59  52  77 SE3       30.31F
PHOENIX, AZ    MOCLDY    86  72  62 E6        29.82R HX  92
PORTLAND, OR   CLEAR     62  58  86 NW5       30.09R
RENO, NV       PTCLDY    74  52  46 W3        30.15S
SALT LAKE CITY MOCLDY    79  54  41 SE6       30.03S
SAN DIEGO, CA  PTCLDY    68  62  81 CALM      29.88S
SAN FRANCISCO, PTCLDY    56  54  93 NW10      29.91F
SAN JOSE, CA   CLEAR     62  56  80 NW5       29.90F
SEATTLE, WA    PTCLDY    60  57  89 S6        30.09S
TIJUANA, MEX   CLEAR     64  59  82 CALM      29.90F

$$

STATION/POSITION TIME  TEMP    WIND        PRES    VSBY  WAVE
                       AIR SEA DIR/SP/G                  HT/PER
                 (UTC) (F)     (DEG/KT/KT) (MB)    (MI)  (FT/S)
POINT ARGUELLO B NOT AVBL
WEST SANTA BARBA 1050   57 59  310/ 17/ 21 1010.9F         5/ 7
POINT CONCEPTION NOT AVBL
EAST SANTA BARBA 1100   60 64  230/ 10/ 12 1011.9F
SANTA MONICA BAY 1050   64 67   20/  4/  4 1011.9R         4/ 6



USA.gov is the U.S. government's official web portal to all federal, state and local government web resources and services.